Time,TemperatureF,DewpointF,PressureIn,WindDirection,WindDirectionDegrees,WindSpeedMPH,WindSpeedGustMPH,Humidity,HourlyPrecipIn,Conditions,Clouds,dailyrainin,SoftwareType,DateUTC
2013-01-05 00:04:00,37.3,21.0,30.39,West,267,0.0,-999.0,51,-99.99,,,0.00,weatherlink.com 1.10,2013-01-05 06:04:00,
2013-01-05 00:19:00,37.3,21.0,30.39,West,267,3.0,-999.0,52,-99.99,,,0.00,weatherlink.com 1.10,2013-01-05 06:19:00,
2013-01-05 00:34:00,36.8,20.0,30.39,West,267,2.0,-999.0,52,-99.99,,,0.00,weatherlink.com 1.10,2013-01-05 06:34:00,
2013-01-05 00:49:00,37.3,20.0,30.38,West,267,0.0,-999.0,50,-99.99,,,0.00,weatherlink.com 1.10,2013-01-05 06:49:00,
2013-01-05 01:04:00,37.5,20.0,30.37,West,267,0.0,-999.0,50,-99.99,,,0.00,weatherlink.com 1.10,2013-01-05 07:04:00,
2013-01-05 01:19:00,37.9,20.0,30.36,West,267,0.0,-999.0,49,-99.99,,,0.00,weatherlink.com 1.10,2013-01-05 07:19:00,
2013-01-05 01:34:00,37.8,20.0,30.37,West,267,0.0,-999.0,48,-99.99,,,0.00,weatherlink.com 1.10,2013-01-05 07:34:00,
2013-01-05 01:49:00,37.2,19.0,30.36,West,267,2.0,-999.0,49,-99.99,,,0.00,weatherlink.com 1.10,2013-01-05 07:49:00,
2013-01-05 02:04:00,36.7,20.0,30.36,West,266,4.0,-999.0,51,-99.99,,,0.00,weatherlink.com 1.10,2013-01-05 08:04:00,
2013-01-05 02:19:00,36.6,20.0,30.35,West,263,2.0,-999.0,52,-99.99,,,0.00,weatherlink.com 1.10,2013-01-05 08:19:00,
2013-01-05 02:34:00,36.4,21.0,30.36,WSW,257,3.0,-999.0,55,-99.99,,,0.00,weatherlink.com 1.10,2013-01-05 08:34:00,
2013-01-05 02:49:00,36.3,21.0,30.36,WSW,246,1.0,-999.0,55,-99.99,,,0.00,weatherlink.com 1.10,2013-01-05 08:49:00,
2013-01-05 03:04:00,36.3,22.0,30.37,SW,235,4.0,-999.0,56,-99.99,,,0.00,weatherlink.com 1.10,2013-01-05 09:04:00,
2013-01-05 03:19:00,36.0,23.0,30.36,SW,236,2.0,-999.0,59,-99.99,,,0.00,weatherlink.com 1.10,2013-01-05 09:19:00,
2013-01-05 03:34:00,37.0,23.0,30.36,SW,234,4.0,-999.0,57,-99.99,,,0.00,weatherlink.com 1.10,2013-01-05 09:34:00,
2013-01-05 03:49:00,37.2,23.0,30.37,SW,233,5.0,-999.0,58,-99.99,,,0.00,weatherlink.com 1.10,2013-01-05 09:49:00,
2013-01-05 04:04:00,37.1,23.0,30.36,SW,233,4.0,-999.0,58,-99.99,,,0.00,weatherlink.com 1.10,2013-01-05 10:04:00,
2013-01-05 04:19:00,37.4,24.0,30.36,SW,232,4.0,-999.0,58,-99.99,,,0.00,weatherlink.com 1.10,2013-01-05 10:19:00,
2013-01-05 04:34:00,37.0,24.0,30.37,SW,234,3.0,-999.0,59,-99.99,,,0.00,weatherlink.com 1.10,2013-01-05 10:34:00,
2013-01-05 04:49:00,36.6,24.0,30.37,SW,233,6.0,-999.0,60,-99.99,,,0.00,weatherlink.com 1.10,2013-01-05 10:49:00,
2013-01-05 05:04:00,36.4,24.0,30.36,SW,233,5.0,-999.0,60,-99.99,,,0.00,weatherlink.com 1.10,2013-01-05 11:04:00,
2013-01-05 05:19:00,36.3,24.0,30.36,SW,234,1.0,-999.0,61,-99.99,,,0.00,weatherlink.com 1.10,2013-01-05 11:19:00,
2013-01-05 05:34:00,36.4,24.0,30.37,SW,235,0.0,-999.0,60,-99.99,,,0.00,weatherlink.com 1.10,2013-01-05 11:34:00,
2013-01-05 05:49:00,36.3,24.0,30.36,SW,236,4.0,-999.0,61,-99.99,,,0.00,weatherlink.com 1.10,2013-01-05 11:49:00,
2013-01-05 06:04:00,36.2,24.0,30.36,SW,236,3.0,-999.0,62,-99.99,,,0.00,weatherlink.com 1.10,2013-01-05 12:04:00,
2013-01-05 06:19:00,36.1,24.0,30.37,SW,234,1.0,-999.0,63,-99.99,,,0.00,weatherlink.com 1.10,2013-01-05 12:19:00,
2013-01-05 06:34:00,35.9,24.0,30.37,SW,232,4.0,-999.0,63,-99.99,,,0.00,weatherlink.com 1.10,2013-01-05 12:34:00,
2013-01-05 06:49:00,35.5,25.0,30.38,SW,234,1.0,-999.0,65,-99.99,,,0.00,weatherlink.com 1.10,2013-01-05 12:49:00,
2013-01-05 07:04:00,35.4,27.0,30.37,SW,234,1.0,-999.0,70,-99.99,,,0.00,weatherlink.com 1.10,2013-01-05 13:04:00,
2013-01-05 07:19:00,35.7,26.0,30.37,SW,234,0.0,-999.0,69,-99.99,,,0.00,weatherlink.com 1.10,2013-01-05 13:19:00,
2013-01-05 07:34:00,36.1,27.0,30.36,SW,234,0.0,-999.0,69,-99.99,,,0.00,weatherlink.com 1.10,2013-01-05 13:34:00,
2013-01-05 07:49:00,36.0,26.0,30.37,SW,234,0.0,-999.0,68,-99.99,,,0.00,weatherlink.com 1.10,2013-01-05 13:49:00,
2013-01-05 08:04:00,35.4,26.0,30.37,SW,234,0.0,-999.0,69,-99.99,,,0.00,weatherlink.com 1.10,2013-01-05 14:04:00,
2013-01-05 08:19:00,35.4,27.0,30.38,SW,234,0.0,-999.0,70,-99.99,,,0.00,weatherlink.com 1.10,2013-01-05 14:19:00,
2013-01-05 08:34:00,35.4,27.0,30.37,SW,234,0.0,-999.0,71,-99.99,,,0.00,weatherlink.com 1.10,2013-01-05 14:34:00,
2013-01-05 08:49:00,35.9,27.0,30.37,SW,221,5.0,-999.0,71,-99.99,,,0.00,weatherlink.com 1.10,2013-01-05 14:49:00,
2013-01-05 09:04:00,35.8,27.0,30.37,SW,225,0.0,-999.0,71,-99.99,,,0.00,weatherlink.com 1.10,2013-01-05 15:04:00,
2013-01-05 09:19:00,36.0,28.0,30.36,SW,225,0.0,-999.0,72,-99.99,,,0.00,weatherlink.com 1.10,2013-01-05 15:19:00,
2013-01-05 09:34:00,36.3,28.0,30.36,SW,223,0.0,-999.0,71,-99.99,,,0.00,weatherlink.com 1.10,2013-01-05 15:34:00,
2013-01-05 09:49:00,37.1,28.0,30.36,SW,223,0.0,-999.0,71,-99.99,,,0.00,weatherlink.com 1.10,2013-01-05 15:49:00,
2013-01-05 10:04:00,37.6,29.0,30.35,SW,225,2.0,-999.0,70,-99.99,,,0.00,weatherlink.com 1.10,2013-01-05 16:04:00,
2013-01-05 10:19:00,37.5,29.0,30.35,SW,229,0.0,-999.0,70,-99.99,,,0.00,weatherlink.com 1.10,2013-01-05 16:19:00,
2013-01-05 10:34:00,38.2,29.0,30.36,WSW,237,0.0,-999.0,69,-99.99,,,0.00,weatherlink.com 1.10,2013-01-05 16:34:00,
2013-01-05 10:49:00,38.0,29.0,30.36,WSW,238,5.0,-999.0,71,-99.99,,,0.00,weatherlink.com 1.10,2013-01-05 16:49:00,
2013-01-05 11:04:00,38.1,29.0,30.34,WSW,242,0.0,-999.0,71,-99.99,,,0.00,weatherlink.com 1.10,2013-01-05 17:04:00,
2013-01-05 11:19:00,38.9,30.0,30.33,WSW,238,0.0,-999.0,70,-99.99,,,0.00,weatherlink.com 1.10,2013-01-05 17:19:00,
2013-01-05 11:34:00,39.8,30.0,30.31,SW,225,0.0,-999.0,68,-99.99,,,0.00,weatherlink.com 1.10,2013-01-05 17:34:00,
2013-01-05 11:49:00,40.9,30.0,30.30,SW,230,1.0,-999.0,66,-99.99,,,0.00,weatherlink.com 1.10,2013-01-05 17:49:00,
2013-01-05 12:04:00,41.4,31.0,30.29,WSW,238,1.0,-999.0,66,-99.99,,,0.00,weatherlink.com 1.10,2013-01-05 18:04:00,
2013-01-05 12:19:00,41.7,31.0,30.29,SW,215,2.0,-999.0,67,-99.99,,,0.00,weatherlink.com 1.10,2013-01-05 18:19:00,
2013-01-05 12:34:00,42.1,32.0,30.28,SW,215,3.0,-999.0,67,-99.99,,,0.00,weatherlink.com 1.10,2013-01-05 18:34:00,
2013-01-05 12:49:00,41.3,31.0,30.28,SW,215,0.0,-999.0,68,-99.99,,,0.00,weatherlink.com 1.10,2013-01-05 18:49:00,
2013-01-05 13:04:00,42.3,32.0,30.27,SW,235,3.0,-999.0,66,-99.99,,,0.00,weatherlink.com 1.10,2013-01-05 19:04:00,
2013-01-05 13:19:00,42.3,32.0,30.26,WSW,237,0.0,-999.0,66,-99.99,,,0.00,weatherlink.com 1.10,2013-01-05 19:19:00,
2013-01-05 13:34:00,42.8,32.0,30.25,SW,235,0.0,-999.0,67,-99.99,,,0.00,weatherlink.com 1.10,2013-01-05 19:34:00,
2013-01-05 13:49:00,43.5,32.0,30.24,SW,234,0.0,-999.0,65,-99.99,,,0.00,weatherlink.com 1.10,2013-01-05 19:49:00,
2013-01-05 14:04:00,43.5,33.0,30.24,SW,225,0.0,-999.0,66,-99.99,,,0.00,weatherlink.com 1.10,2013-01-05 20:04:00,
2013-01-05 14:19:00,44.4,33.0,30.24,SW,232,0.0,-999.0,64,-99.99,,,0.00,weatherlink.com 1.10,2013-01-05 20:19:00,
2013-01-05 14:34:00,42.9,33.0,30.24,WSW,238,3.0,-999.0,68,-99.99,,,0.00,weatherlink.com 1.10,2013-01-05 20:34:00,
2013-01-05 14:49:00,42.4,33.0,30.24,SW,229,0.0,-999.0,69,-99.99,,,0.00,weatherlink.com 1.10,2013-01-05 20:49:00,
2013-01-05 15:04:00,42.9,34.0,30.24,SW,233,0.0,-999.0,70,-99.99,,,0.00,weatherlink.com 1.10,2013-01-05 21:04:00,
2013-01-05 15:19:00,43.2,34.0,30.25,SW,236,1.0,-999.0,69,-99.99,,,0.00,weatherlink.com 1.10,2013-01-05 21:19:00,
2013-01-05 15:34:00,42.8,34.0,30.24,WSW,240,1.0,-999.0,71,-99.99,,,0.00,weatherlink.com 1.10,2013-01-05 21:34:00,
2013-01-05 15:49:00,42.7,34.0,30.24,SW,232,3.0,-999.0,71,-99.99,,,0.00,weatherlink.com 1.10,2013-01-05 21:49:00,
2013-01-05 16:04:00,42.0,34.0,30.25,SW,231,0.0,-999.0,73,-99.99,,,0.00,weatherlink.com 1.10,2013-01-05 22:04:00,
2013-01-05 16:19:00,41.7,34.0,30.25,SW,230,1.0,-999.0,74,-99.99,,,0.00,weatherlink.com 1.10,2013-01-05 22:19:00,
2013-01-05 16:34:00,41.5,34.0,30.25,SW,232,3.0,-999.0,74,-99.99,,,0.00,weatherlink.com 1.10,2013-01-05 22:34:00,
2013-01-05 16:49:00,41.2,34.0,30.24,SW,227,3.0,-999.0,75,-99.99,,,0.00,weatherlink.com 1.10,2013-01-05 22:49:00,
2013-01-05 17:04:00,40.8,34.0,30.24,SW,223,2.0,-999.0,76,-99.99,,,0.00,weatherlink.com 1.10,2013-01-05 23:04:00,
2013-01-05 17:19:00,40.1,33.0,30.24,SSW,211,2.0,-999.0,77,-99.99,,,0.00,weatherlink.com 1.10,2013-01-05 23:19:00,
2013-01-05 17:34:00,39.9,34.0,30.25,SSW,205,4.0,-999.0,78,-99.99,,,0.00,weatherlink.com 1.10,2013-01-05 23:34:00,
2013-01-05 17:49:00,39.7,34.0,30.25,SSW,204,3.0,-999.0,79,-99.99,,,0.00,weatherlink.com 1.10,2013-01-05 23:49:00,
2013-01-05 18:04:00,39.6,34.0,30.25,SSW,205,3.0,-999.0,79,-99.99,,,0.00,weatherlink.com 1.10,2013-01-06 00:04:00,
2013-01-05 18:19:00,39.3,34.0,30.25,SW,218,1.0,-999.0,80,-99.99,,,0.00,weatherlink.com 1.10,2013-01-06 00:19:00,
2013-01-05 18:34:00,39.2,34.0,30.25,SW,228,5.0,-999.0,80,-99.99,,,0.00,weatherlink.com 1.10,2013-01-06 00:34:00,
2013-01-05 18:49:00,39.1,33.0,30.25,SW,231,5.0,-999.0,80,-99.99,,,0.00,weatherlink.com 1.10,2013-01-06 00:49:00,
2013-01-05 19:04:00,38.8,33.0,30.25,WSW,238,2.0,-999.0,80,-99.99,,,0.00,weatherlink.com 1.10,2013-01-06 01:04:00,
2013-01-05 19:19:00,38.7,33.0,30.27,WSW,244,3.0,-999.0,80,-99.99,,,0.00,weatherlink.com 1.10,2013-01-06 01:19:00,
2013-01-05 19:34:00,38.7,33.0,30.27,WSW,244,0.0,-999.0,80,-99.99,,,0.00,weatherlink.com 1.10,2013-01-06 01:34:00,
2013-01-05 19:49:00,38.6,33.0,30.27,SW,236,0.0,-999.0,81,-99.99,,,0.00,weatherlink.com 1.10,2013-01-06 01:49:00,
2013-01-05 20:04:00,38.4,33.0,30.27,WSW,237,0.0,-999.0,81,-99.99,,,0.00,weatherlink.com 1.10,2013-01-06 02:04:00,
2013-01-05 20:19:00,38.3,33.0,30.27,WSW,242,0.0,-999.0,81,-99.99,,,0.00,weatherlink.com 1.10,2013-01-06 02:19:00,
2013-01-05 20:34:00,38.2,33.0,30.28,WSW,242,0.0,-999.0,81,-99.99,,,0.00,weatherlink.com 1.10,2013-01-06 02:34:00,
2013-01-05 20:49:00,38.2,33.0,30.28,WSW,244,2.0,-999.0,81,-99.99,,,0.00,weatherlink.com 1.10,2013-01-06 02:49:00,
2013-01-05 21:04:00,38.0,33.0,30.28,WSW,246,0.0,-999.0,81,-99.99,,,0.00,weatherlink.com 1.10,2013-01-06 03:04:00,
2013-01-05 21:19:00,37.9,33.0,30.27,WSW,246,2.0,-999.0,82,-99.99,,,0.00,weatherlink.com 1.10,2013-01-06 03:19:00,
2013-01-05 21:34:00,37.8,33.0,30.27,WSW,246,3.0,-999.0,82,-99.99,,,0.00,weatherlink.com 1.10,2013-01-06 03:34:00,
2013-01-05 21:49:00,37.6,33.0,30.28,WSW,252,2.0,-999.0,82,-99.99,,,0.00,weatherlink.com 1.10,2013-01-06 03:49:00,
2013-01-05 22:04:00,37.5,33.0,30.27,WSW,246,0.0,-999.0,82,-99.99,,,0.00,weatherlink.com 1.10,2013-01-06 04:04:00,
2013-01-05 22:19:00,37.3,32.0,30.27,SW,236,1.0,-999.0,82,-99.99,,,0.00,weatherlink.com 1.10,2013-01-06 04:19:00,
2013-01-05 22:34:00,37.1,32.0,30.27,WSW,252,3.0,-999.0,82,-99.99,,,0.00,weatherlink.com 1.10,2013-01-06 04:34:00,
2013-01-05 22:49:00,36.9,32.0,30.27,WSW,240,1.0,-999.0,82,-99.99,,,0.00,weatherlink.com 1.10,2013-01-06 04:49:00,
2013-01-05 23:04:00,36.7,32.0,30.27,WSW,238,8.0,-999.0,82,-99.99,,,0.00,weatherlink.com 1.10,2013-01-06 05:04:00,
2013-01-05 23:19:00,36.6,32.0,30.27,WSW,244,11.0,-999.0,82,-99.99,,,0.00,weatherlink.com 1.10,2013-01-06 05:19:00,
2013-01-05 23:34:00,36.9,32.0,30.27,WSW,248,0.0,-999.0,82,-99.99,,,0.00,weatherlink.com 1.10,2013-01-06 05:34:00,
2013-01-05 23:49:00,37.2,32.0,30.27,WSW,244,0.0,-999.0,82,-99.99,,,0.00,weatherlink.com 1.10,2013-01-06 05:49:00,